When you browse on this site, cookies collect data to enhance your experience and personalize the content and advertising you see.
Visit our Privacy Policy to learn more. By continuing to use the site, you agree to this use of cookies and data.
  • In Hungary
  • List of Countries
  • For 7 days
  • Water Temperature
  • Satellite Maps
  • Weather Map
  • News
  • Weather Widgets
  • user-avatar
    Login

    Hourly Weather Tbilisi

    Today, 21 January, Monday

    Time Temperature Precipitation Wind Pressure Humidity
    00:00 +1°C° 0 mm 1 mps 706 mmHg 48%
    01:00 +1°C° 0 mm 1 mps 706 mmHg 49%
    02:00 +1°C° 0 mm 1 mps 706 mmHg 50%
    03:00 -1°C° 0 mm 0 mps 706 mmHg 51%
    04:00 0°C° 0 mm 1 mps 706 mmHg 52%
    05:00 0°C° 0 mm 1 mps 705 mmHg 52%
    06:00 0°C° 0 mm 1 mps 705 mmHg 53%
    07:00 0°C° 0 mm 1 mps 705 mmHg 51%
    08:00 +1°C° 0 mm 1 mps 705 mmHg 50%
    09:00 +1°C° 0 mm 0 mps 705 mmHg 46%
    10:00 +3°C° 0 mm 1 mps 705 mmHg 42%
    11:00 +4°C° 0 mm 1 mps 704 mmHg 39%
    12:00 +5°C° 0 mm 1 mps 704 mmHg 36%
    13:00 +5°C° 0 mm 1 mps 703 mmHg 35%
    14:00 +5°C° 0 mm 1 mps 703 mmHg 35%
    15:00 +5°C° 0 mm 1 mps 703 mmHg 35%
    16:00 +4°C° 0 mm 1 mps 703 mmHg 39%
    17:00 +2°C° 0 mm 0 mps 703 mmHg 42%
    18:00 +1°C° 0 mm 0 mps 703 mmHg 46%
    19:00 +1°C° 0 mm 0 mps 703 mmHg 47%
    20:00 +2°C° 0 mm 1 mps 703 mmHg 49%
    21:00 +1°C° 0 mm 1 mps 703 mmHg 50%
    22:00 +1°C° 0 mm 1 mps 703 mmHg 50%
    23:00 +1°C° 0 mm 1 mps 702 mmHg 50%

    Tomorrow, 22 January, Tuesday

    Time Temperature Precipitation Wind Pressure Humidity
    00:00 +1°C° 0 mm 1 mps 702 mmHg 51%
    01:00 +1°C° 0 mm 1 mps 702 mmHg 51%
    02:00 +1°C° 0 mm 1 mps 702 mmHg 50%
    03:00 0°C° 0 mm 1 mps 701 mmHg 50%
    04:00 0°C° 0 mm 1 mps 701 mmHg 50%
    05:00 -2°C° 0 mm 2 mps 701 mmHg 49%
    06:00 -2°C° 0 mm 2 mps 701 mmHg 49%
    07:00 -1°C° 0 mm 2 mps 701 mmHg 46%
    08:00 +1°C° 0 mm 2 mps 701 mmHg 43%
    09:00 +2°C° 0 mm 2 mps 701 mmHg 41%
    10:00 +3°C° 0 mm 2 mps 701 mmHg 39%
    11:00 +4°C° 0 mm 3 mps 701 mmHg 37%
    12:00 +5°C° 0 mm 3 mps 701 mmHg 34%
    13:00 +5°C° 0 mm 3 mps 701 mmHg 38%
    14:00 +7°C° 0 mm 3 mps 701 mmHg 41%
    15:00 +7°C° 0 mm 3 mps 701 mmHg 44%
    16:00 +4°C° 0 mm 3 mps 701 mmHg 51%
    17:00 +4°C° 0 mm 2 mps 701 mmHg 59%
    18:00 +2°C° 0 mm 2 mps 702 mmHg 67%
    19:00 +2°C° 0 mm 2 mps 702 mmHg 70%
    20:00 +2°C° 0 mm 2 mps 702 mmHg 73%
    21:00 +1°C° 0 mm 2 mps 702 mmHg 77%
    22:00 +1°C° 0 mm 2 mps 702 mmHg 78%
    23:00 +1°C° 0 mm 2 mps 702 mmHg 78%

    Day after tomorrow, 23 January, Wednesday

    Time Temperature Precipitation Wind Pressure Humidity
    00:00 -1°C° 0 mm 2 mps 702 mmHg 79%
    01:00 -1°C° 0 mm 2 mps 703 mmHg 79%
    02:00 +1°C° 0 mm 1 mps 703 mmHg 78%
    03:00 +1°C° 0 mm 1 mps 703 mmHg 77%
    04:00 +1°C° 0 mm 1 mps 703 mmHg 76%
    05:00 +1°C° 0 mm 1 mps 703 mmHg 75%
    06:00 0°C° 0 mm 1 mps 702 mmHg 74%
    07:00 +1°C° 0 mm 1 mps 703 mmHg 71%
    08:00 +2°C° 0 mm 1 mps 703 mmHg 67%
    09:00 +2°C° 0 mm 1 mps 703 mmHg 63%
    10:00 +3°C° 0 mm 1 mps 703 mmHg 59%
    11:00 +3°C° 0 mm 2 mps 703 mmHg 55%
    12:00 +4°C° 0 mm 2 mps 703 mmHg 51%
    13:00 +5°C° 0 mm 2 mps 703 mmHg 50%
    14:00 +5°C° 0 mm 2 mps 702 mmHg 49%
    15:00 +5°C° 0 mm 2 mps 702 mmHg 48%
    16:00 +4°C° 0 mm 2 mps 703 mmHg 53%
    17:00 +4°C° 0 mm 1 mps 703 mmHg 58%
    18:00 +3°C° 0 mm 1 mps 704 mmHg 63%
    19:00 +2°C° 0 mm 1 mps 704 mmHg 64%
    20:00 +2°C° 0 mm 1 mps 704 mmHg 65%
    21:00 +2°C° 0 mm 1 mps 704 mmHg 66%
    22:00 +1°C° 0 mm 1 mps 704 mmHg 66%
    23:00 +1°C° 0 mm 1 mps 705 mmHg 67%

    24 January, Thursday

    Time Temperature Precipitation Wind Pressure Humidity
    00:00 +1°C° 0 mm 1 mps 705 mmHg 67%
    01:00 +1°C° 0 mm 1 mps 704 mmHg 67%
    02:00 0°C° 0 mm 1 mps 704 mmHg 67%
    03:00 0°C° 0 mm 1 mps 704 mmHg 67%
    04:00 0°C° 0 mm 1 mps 704 mmHg 66%
    05:00 0°C° 0 mm 1 mps 704 mmHg 66%
    06:00 0°C° 0 mm 1 mps 703 mmHg 65%
    07:00 0°C° 0 mm 1 mps 704 mmHg 62%
    08:00 +1°C° 0 mm 1 mps 704 mmHg 58%
    09:00 +2°C° 0 mm 1 mps 704 mmHg 54%
    10:00 +3°C° 0 mm 1 mps 703 mmHg 50%
    11:00 +4°C° 0 mm 1 mps 703 mmHg 46%
    12:00 +6°C° 0 mm 1 mps 702 mmHg 42%
    13:00 +6°C° 0 mm 1 mps 702 mmHg 41%
    14:00 +6°C° 0 mm 1 mps 701 mmHg 41%
    15:00 +6°C° 0 mm 2 mps 701 mmHg 40%
    16:00 +6°C° 0 mm 1 mps 701 mmHg 43%
    17:00 +5°C° 0 mm 1 mps 702 mmHg 46%
    18:00 +4°C° 0 mm 1 mps 702 mmHg 49%
    19:00 +4°C° 0 mm 1 mps 702 mmHg 50%
    20:00 +3°C° 0 mm 1 mps 702 mmHg 51%
    21:00 +3°C° 0 mm 1 mps 702 mmHg 52%
    22:00 +3°C° 0 mm 1 mps 702 mmHg 53%
    23:00 +2°C° 0 mm 1 mps 702 mmHg 53%

    25 January, Friday

    Time Temperature Precipitation Wind Pressure Humidity
    00:00 +2°C° 0 mm 1 mps 702 mmHg 54%
    01:00 +2°C° 0 mm 1 mps 701 mmHg 54%
    02:00 +2°C° 0 mm 1 mps 701 mmHg 53%
    03:00 +2°C° 0 mm 1 mps 701 mmHg 53%
    04:00 +2°C° 0 mm 1 mps 700 mmHg 53%
    05:00 +2°C° 0 mm 1 mps 700 mmHg 53%
    06:00 +2°C° 0 mm 1 mps 700 mmHg 53%
    07:00 +3°C° 0 mm 1 mps 700 mmHg 52%
    08:00 +3°C° 0 mm 1 mps 700 mmHg 51%
    09:00 +4°C° 0 mm 1 mps 700 mmHg 49%
    10:00 +5°C° 0 mm 1 mps 700 mmHg 47%
    11:00 +6°C° 0 mm 1 mps 699 mmHg 44%
    12:00 +6°C° 0 mm 0 mps 699 mmHg 41%
    13:00 +8°C° 0 mm 1 mps 699 mmHg 42%
    14:00 +8°C° 0 mm 1 mps 699 mmHg 43%
    15:00 +8°C° 0 mm 1 mps 698 mmHg 44%
    16:00 +7°C° 0 mm 1 mps 699 mmHg 48%
    17:00 +6°C° 0 mm 1 mps 699 mmHg 52%
    18:00 +5°C° 0 mm 1 mps 700 mmHg 56%
    19:00 +5°C° 0 mm 1 mps 700 mmHg 57%
    20:00 +4°C° 0 mm 1 mps 700 mmHg 58%
    21:00 +3°C° 0 mm 2 mps 700 mmHg 60%
    22:00 +3°C° 0 mm 2 mps 700 mmHg 60%
    23:00 +4°C° 0 mm 1 mps 700 mmHg 60%

    26 January, Saturday

    Time Temperature Precipitation Wind Pressure Humidity
    00:00 +3°C° 0 mm 1 mps 700 mmHg 61%
    01:00 +3°C° 0 mm 1 mps 700 mmHg 61%
    02:00 +3°C° 0 mm 1 mps 699 mmHg 61%
    03:00 +3°C° 0 mm 1 mps 699 mmHg 61%
    04:00 +3°C° 0 mm 1 mps 699 mmHg 61%
    05:00 +3°C° 0 mm 1 mps 699 mmHg 61%
    06:00 +3°C° 0 mm 1 mps 699 mmHg 62%
    07:00 +3°C° 0 mm 1 mps 699 mmHg 59%
    08:00 +4°C° 0 mm 1 mps 699 mmHg 57%
    09:00 +5°C° 0 mm 1 mps 699 mmHg 55%
    10:00 +6°C° 0 mm 1 mps 699 mmHg 51%
    11:00 +8°C° 0 mm 1 mps 698 mmHg 46%
    12:00 +9°C° 0 mm 1 mps 698 mmHg 42%
    13:00 +10°C° 0 mm 1 mps 697 mmHg 41%
    14:00 +9°C° 0 mm 2 mps 697 mmHg 41%
    15:00 +10°C° 0 mm 2 mps 697 mmHg 40%
    16:00 +9°C° 0 mm 1 mps 697 mmHg 44%
    17:00 +8°C° 0 mm 1 mps 697 mmHg 49%
    18:00 +6°C° 0 mm 1 mps 698 mmHg 53%
    19:00 +6°C° 0 mm 1 mps 698 mmHg 55%
    20:00 +6°C° 0 mm 1 mps 698 mmHg 56%
    21:00 +6°C° 0 mm 1 mps 697 mmHg 57%
    22:00 +5°C° 0.1 mm 1 mps 697 mmHg 59%
    23:00 +5°C° 0.1 mm 1 mps 697 mmHg 60%
    Show more